This is the latest recevied weather packets stored in our database for station/object WX7EM. If no packets are shown the sender has not sent any weather packets the latest 10 day(s).
| Time | Temp. | Humidity | Pressure | Rain* | Wind** | Luminosity | Snow |
|---|---|---|---|---|---|---|---|
| 1777673292 | 18.89° C | 67% | 1015.1 hPa | 0 mm | - | 226 W/m² | - |
| 1777672989 | 18.89° C | 65% | 1015.2 hPa | 0 mm | - | 214 W/m² | - |
| 1777672686 | 18.89° C | 66% | 1015.3 hPa | 0 mm | - | 220 W/m² | - |
| 1777672381 | 18.89° C | 67% | 1015.1 hPa | 0 mm | - | 235 W/m² | - |
| 1777672077 | 18.89° C | 67% | 1015.2 hPa | 0 mm | - | 227 W/m² | - |
| 1777671773 | 18.89° C | 65% | 1015.3 hPa | 0 mm | - | 229 W/m² | - |
| 1777671469 | 18.89° C | 71% | 1015.3 hPa | 0 mm | - | 283 W/m² | - |
| 1777671166 | 18.89° C | 70% | 1015.4 hPa | 0 mm | - | 259 W/m² | - |
| 1777670862 | 18.33° C | 69% | 1015.4 hPa | 0 mm | - | 310 W/m² | - |
| 1777670558 | 18.89° C | 70% | 1015.3 hPa | 0 mm | - | 303 W/m² | - |
| 1777670256 | 18.89° C | 70% | 1015.6 hPa | 0 mm | - | 605 W/m² | - |
| 1777669953 | 18.33° C | 70% | 1015.4 hPa | 0 mm | - | 631 W/m² | - |
| 1777669650 | 18.89° C | 69% | 1015.6 hPa | 0 mm | - | 624 W/m² | - |
| 1777669346 | 18.33° C | 70% | 1015.4 hPa | 0 mm | - | 633 W/m² | - |
| 1777669043 | 18.33° C | 71% | 1015.7 hPa | 0 mm | - | 618 W/m² | - |
| 1777668740 | 17.78° C | 71% | 1015.8 hPa | 0 mm | - | 696 W/m² | - |
| 1777668437 | 17.22° C | 73% | 1015.8 hPa | 0 mm | - | 661 W/m² | - |
| 1777668133 | 18.33° C | 72% | 1015.9 hPa | 0 mm | - | 697 W/m² | - |
| 1777667829 | 18.33° C | 71% | 1016.1 hPa | 0 mm | - | 752 W/m² | - |
| 1777667527 | 17.78° C | 72% | 1016 hPa | 0 mm | - | 738 W/m² | - |
| 1777667224 | 17.78° C | 73% | 1016.1 hPa | 0 mm | - | 639 W/m² | - |
| 1777666921 | 17.22° C | 74% | 1016.2 hPa | 0 mm | - | 707 W/m² | - |
| 1777666618 | 17.22° C | 73% | 1016.2 hPa | 0 mm | - | 683 W/m² | - |
| 1777666314 | 16.67° C | 74% | 1016.4 hPa | 0 mm | - | 759 W/m² | - |
| 1777666011 | 16.67° C | 74% | 1016.3 hPa | 0 mm | - | 705 W/m² | - |
* Rain latest hour (hover to see other rain measurements)
** Current wind speed in m/s (hover to see current wind gust speed)